Theta_e
295 295 295 295 295 295 295 295 295 295 295 294 295 294 294 294 294 293 293 293 293 293 293 292 292 292 291 291 290 289 289 288 288 287 287 286 286 285 285 285 285 285 285 284 284 284 284 283 283 283 283 283 283 282 282 281 281 281 281 281 280 280 280 280 280 282 281 281 280 280 279 279 280 280 280 279 280 280 280 280 280 279 280 280 280
295 295 295 295 295 295 295 295 295 295 295 294 294 294 294 294 293 293 293 293 292 292 292 292 292 292 291 291 290 289 289 288 288 287 286 286 285 285 284 284 284 284 284 284 284 284 283 283 283 283 283 283 282 282 282 281 281 280 280 280 280 279 279 279 279 278 279 279 278 278 278 277 277 278 278 278 278 279 279 280 279 279 280 280 280
295 295 295 295 295 295 295 295 295 295 295 294 294 294 294 294 293 293 293 292 292 292 292 292 291 291 291 290 290 289 289 288 288 287 287 286 285 285 284 284 284 284 283 284 284 283 283 282 282 282 282 282 282 282 281 281 280 280 280 279 279 279 279 279 278 277 277 277 276 276 275 275 276 277 277 277 277 277 278 278 279 279 279 279 279
296 295 295 295 295 295 295 295 294 294 294 294 294 294 294 294 294 293 293 292 292 291 291 291 291 290 290 290 289 289 289 288 287 287 286 286 285 285 284 284 284 284 284 283 283 283 283 282 282 282 282 281 281 281 280 280 280 280 279 279 278 278 278 277 277 277 276 275 275 275 274 275 275 276 276 276 276 277 277 277 278 278 278 278 278
295 295 295 295 295 295 295 294 294 294 294 294 294 294 295 294 293 293 292 292 291 291 291 290 290 290 289 289 289 289 289 288 287 287 286 286 285 284 284 284 284 284 284 283 283 283 283 282 282 282 281 281 280 280 280 280 280 279 279 278 278 277 277 276 276 276 275 274 274 275 275 275 275 276 276 276 277 277 277 277 278 278 278 278 278
293 293 293 294 294 294 294 294 294 294 294 294 294 294 294 294 293 293 292 292 291 291 290 290 290 289 289 289 289 289 288 288 287 287 286 286 285 284 284 283 283 283 283 283 283 283 283 283 282 282 282 281 281 281 280 280 279 279 278 277 277 276 276 275 275 274 274 274 274 274 275 275 275 276 276 277 277 277 277 277 278 278 278 278 277
293 292 292 292 293 293 293 294 294 294 294 294 294 294 293 293 293 293 292 292 291 290 290 290 290 289 289 289 289 288 288 288 287 286 286 285 285 284 283 283 283 283 283 283 283 283 283 282 283 282 282 282 282 282 281 280 279 279 278 277 276 276 276 275 275 274 274 274 274 274 275 275 276 276 277 277 277 277 277 277 277 278 277 277 277
292 292 292 292 292 292 292 293 293 294 294 294 293 293 293 293 292 292 292 291 291 291 290 290 289 289 289 288 288 288 287 287 286 286 285 285 284 284 283 283 282 282 282 282 282 282 282 282 282 283 283 283 283 282 282 281 280 278 277 277 277 276 276 275 275 274 274 274 274 275 275 276 276 277 277 277 277 277 277 277 277 277 276 276 276
291 291 291 291 291 291 292 292 292 293 293 293 293 292 292 292 292 292 291 291 291 290 290 289 289 288 288 288 288 287 287 287 286 286 285 284 284 284 283 283 282 282 281 281 281 281 281 282 282 282 283 282 282 282 282 281 281 279 278 277 277 276 276 275 275 274 274 275 275 275 276 277 277 277 277 277 277 277 277 277 276 276 276 276 277
290 290 290 291 291 291 291 291 291 292 292 292 292 292 292 292 291 291 291 291 290 290 289 289 288 288 288 287 287 287 286 286 286 286 286 285 284 283 283 282 282 281 281 280 280 280 280 281 281 282 282 282 281 281 281 280 280 280 279 279 278 278 276 275 275 275 275 275 275 276 277 277 277 277 277 277 277 277 277 276 276 276 277 277 277
290 290 290 290 290 290 290 290 290 290 291 291 292 291 291 291 291 291 291 290 290 289 289 288 288 288 287 287 287 286 286 286 286 285 285 285 285 283 282 282 281 281 281 280 280 279 279 279 280 280 281 280 280 280 280 279 279 279 279 279 279 279 278 276 275 275 275 275 276 277 277 277 278 277 277 277 277 277 276 276 276 277 277 277 277
289 290 290 289 290 290 290 290 289 289 290 290 291 291 291 291 290 290 290 290 289 289 288 288 288 287 287 287 286 286 286 286 285 285 285 284 284 284 282 282 281 280 280 280 279 279 279 279 279 279 279 279 279 279 278 278 278 278 278 278 278 278 278 277 277 276 276 276 277 277 278 278 277 277 277 277 276 276 276 276 277 277 277 277 277
289 289 289 289 289 289 289 289 289 289 289 289 290 290 290 290 290 290 289 289 289 288 288 288 287 287 287 286 286 286 286 285 285 284 284 284 284 284 283 282 281 280 280 279 279 279 278 278 277 277 278 278 278 278 277 277 277 277 277 277 277 277 277 277 278 278 277 277 277 278 278 277 277 277 277 276 276 276 277 277 277 277 277 277 277
289 289 289 288 288 288 288 288 289 289 288 288 288 289 290 289 289 289 289 289 288 288 287 287 287 287 286 286 286 286 285 285 284 284 284 284 284 283 283 282 281 280 279 279 278 278 278 278 277 277 277 277 277 277 277 277 277 277 277 277 277 278 278 278 279 279 279 278 278 278 277 277 277 276 276 276 277 277 277 277 277 277 276 276 275
289 289 289 288 288 288 288 288 288 288 288 288 288 288 289 289 289 289 289 288 288 287 287 287 286 286 286 286 285 285 285 284 284 284 284 284 284 283 282 281 280 279 279 278 278 278 278 278 278 278 277 277 277 277 277 277 277 277 277 277 278 278 279 279 279 279 279 279 278 277 276 276 276 276 277 277 277 277 277 277 277 276 275 274 273
288 288 288 288 288 287 287 287 287 288 288 288 287 287 288 288 288 288 288 288 287 287 287 286 286 286 286 285 285 285 284 284 283 283 284 284 284 283 282 280 279 278 278 278 277 277 277 277 277 277 277 277 277 277 277 277 277 277 278 278 278 278 278 278 278 278 278 277 276 276 276 276 277 277 278 278 278 277 277 276 275 274 273 271 271
287 288 288 288 287 287 287 287 287 287 287 287 287 287 287 287 287 288 287 287 287 286 286 286 286 285 285 285 284 284 283 283 283 283 284 285 284 283 281 279 278 278 277 277 277 276 276 277 277 277 277 277 277 277 277 277 277 277 277 277 277 277 277 276 276 276 277 277 276 277 277 277 278 278 277 277 277 276 275 274 273 272 271 269 269
287 287 287 287 287 287 287 286 286 287 287 287 287 286 286 286 286 286 287 286 286 286 286 285 285 285 284 284 284 283 283 282 282 283 284 285 285 283 280 279 278 277 277 276 276 276 276 276 276 277 277 277 277 278 278 277 276 277 277 276 276 276 275 275 275 276 276 277 277 277 277 277 276 276 275 275 275 274 273 272 271 270 269 269 269
286 286 286 286 286 286 286 286 286 286 286 287 287 286 286 285 285 285 285 285 285 285 285 284 284 283 283 283 283 283 282 282 282 283 285 285 285 283 280 278 277 276 276 276 275 276 276 276 276 276 277 277 277 278 279 278 276 276 276 275 275 275 275 275 275 275 276 276 276 276 275 274 274 274 273 273 273 273 272 271 271 269 268 268 268
285 285 285 285 285 286 286 286 286 286 286 287 287 287 286 285 285 284 284 284 284 284 283 283 283 282 282 282 282 282 281 281 281 283 285 285 285 283 280 278 277 276 276 276 276 276 276 276 277 277 277 277 278 279 280 279 277 276 275 275 275 274 275 275 275 275 275 275 275 274 274 273 273 273 273 272 272 272 271 271 270 269 268 268 268
283 283 283 284 284 285 285 286 286 286 286 286 286 286 286 285 284 284 283 283 283 282 282 282 281 281 281 281 281 281 280 280 280 282 284 285 285 282 280 278 277 277 276 276 276 276 276 277 277 277 277 277 278 279 280 280 278 276 275 275 275 275 275 275 275 275 275 275 274 273 273 273 273 272 272 272 271 271 271 271 270 269 268 268 268
281 281 282 282 283 284 284 285 285 285 285 285 286 286 286 285 284 283 282 282 281 281 281 280 280 280 279 279 279 279 279 279 279 281 283 285 285 283 280 279 278 277 277 276 276 277 276 276 277 278 278 278 278 279 280 280 279 276 275 276 276 276 276 275 275 275 275 274 274 273 273 272 272 272 271 271 271 271 271 270 270 269 268 268 268
279 279 280 281 282 282 282 283 283 284 284 284 285 285 285 285 284 283 282 281 280 280 279 279 278 278 278 278 278 278 278 278 278 280 282 284 285 283 281 279 278 277 277 277 277 277 276 277 277 278 278 279 279 279 280 280 280 278 277 277 277 277 276 276 275 275 274 274 273 272 272 271 271 271 271 271 271 270 270 269 268 268 268 268 268
277 278 279 279 279 280 280 281 282 283 283 283 284 284 284 284 283 282 281 280 279 279 278 278 277 277 277 276 276 277 277 277 277 278 280 283 285 284 281 280 279 278 277 277 277 277 277 277 277 277 279 279 279 279 280 280 280 279 278 277 277 277 277 276 275 274 273 273 272 271 271 271 271 270 270 270 270 269 268 268 267 267 267 267 267
276 277 277 277 277 277 278 279 280 281 282 283 283 283 283 283 282 281 280 279 279 278 278 277 277 277 277 276 276 276 276 276 277 277 279 281 284 284 282 280 279 279 278 277 277 277 277 277 277 277 279 279 279 279 280 280 280 279 278 278 277 277 276 275 274 273 272 272 271 271 270 270 270 270 269 269 269 268 268 267 267 267 267 267 267
274 274 274 274 275 275 276 277 277 278 280 281 282 282 282 282 282 281 280 279 278 278 278 278 277 277 277 277 277 276 276 276 276 277 278 279 282 284 284 281 280 280 278 277 277 277 277 277 277 277 279 280 279 280 280 279 279 279 278 277 276 275 275 274 273 272 271 271 270 270 270 270 270 269 269 268 268 268 267 266 266 266 266 266 266
272 272 272 272 272 273 274 275 276 277 278 280 281 281 281 281 281 280 280 279 278 278 278 278 278 277 277 277 277 276 275 275 275 276 277 278 280 283 284 282 281 280 279 277 277 277 277 277 277 277 279 279 279 279 278 278 278 277 276 275 275 274 274 273 272 271 270 270 270 270 270 270 269 269 268 267 267 268 267 266 265 266 266 266 266
269 270 270 270 270 271 272 273 274 275 277 278 280 281 281 281 280 280 280 280 279 279 279 278 278 278 278 278 277 275 275 275 275 276 277 277 279 282 283 282 281 280 278 277 277 277 277 277 277 278 278 278 277 277 276 276 275 275 274 274 273 273 272 270 269 269 269 269 269 269 269 269 269 268 268 267 267 267 266 265 265 265 265 266 266
267 267 268 268 269 270 271 272 273 275 276 277 279 280 280 280 280 280 281 281 281 280 280 279 279 279 279 278 277 276 275 275 275 276 277 277 279 281 283 282 281 280 278 277 276 277 277 277 277 277 276 275 275 274 274 274 273 273 273 273 271 270 270 269 269 269 269 269 269 269 268 268 268 268 266 266 266 266 266 265 265 265 265 266 266
266 266 267 267 268 270 271 272 273 274 275 276 277 278 279 280 280 280 281 281 281 281 281 281 280 280 279 279 278 277 277 276 276 276 277 277 279 281 282 282 281 279 278 277 277 276 276 276 275 274 274 273 273 272 272 272 272 272 271 270 270 269 269 269 269 269 269 268 268 268 268 268 267 267 265 265 265 265 265 265 265 265 265 265 266
265 265 266 267 268 268 269 270 271 271 272 273 274 276 277 278 279 280 281 281 281 280 280 281 281 280 279 279 278 278 278 277 276 276 277 278 279 281 282 282 280 279 278 277 276 276 275 274 274 273 273 272 272 271 271 271 271 270 269 268 268 268 268 269 269 268 268 268 268 268 267 267 266 265 264 264 264 264 264 264 265 265 265 265 266
264 265 265 265 266 267 267 268 268 269 270 271 272 274 275 277 278 279 279 280 281 281 281 281 281 281 280 279 278 277 277 277 277 277 277 278 279 281 282 282 280 279 278 277 276 275 274 274 273 272 271 271 271 271 270 270 270 270 269 268 268 268 268 268 268 268 268 268 268 267 267 266 265 264 264 264 263 263 264 264 264 265 265 265 266
263 264 264 264 265 265 266 266 267 268 269 270 272 273 275 277 277 278 278 279 280 281 281 281 281 281 281 280 279 278 277 277 277 277 278 278 279 280 282 282 280 279 279 277 275 274 274 273 272 271 271 271 270 270 269 270 269 269 269 268 268 268 268 268 268 268 268 267 267 267 266 266 265 264 263 263 263 263 264 264 264 265 265 265 266
263 263 264 264 264 265 266 266 267 268 269 271 272 273 275 276 277 277 278 278 278 279 280 281 281 281 281 281 280 279 278 278 278 278 278 279 280 280 282 282 281 280 278 276 275 274 273 272 272 271 270 270 269 269 270 270 269 269 269 268 268 268 268 268 267 267 267 267 267 266 266 266 265 264 263 263 263 263 263 264 264 265 265 266 267
263 263 264 264 265 265 266 267 268 269 270 271 272 273 275 276 276 277 277 278 278 278 278 279 280 280 280 280 281 280 279 278 278 278 279 279 280 281 282 281 281 280 278 276 274 273 272 272 271 270 270 269 269 270 270 270 269 269 269 268 268 268 268 267 267 267 267 266 266 266 266 266 265 264 263 263 262 262 263 263 264 265 266 266 267
263 263 264 264 265 265 266 267 267 268 269 270 270 271 273 275 276 277 277 277 277 278 278 278 278 279 280 280 281 280 280 279 279 279 279 279 280 281 281 281 280 280 277 274 273 272 272 271 271 270 269 269 269 270 270 269 269 269 268 268 268 268 267 267 267 267 266 266 266 266 266 266 265 264 263 263 262 262 263 264 265 265 266 267 267
263 263 264 264 265 266 266 267 267 268 269 269 270 271 272 273 275 276 277 277 277 277 277 277 277 278 279 280 280 280 280 280 279 279 279 280 280 281 281 280 280 278 275 273 272 271 271 271 270 269 269 269 269 270 270 269 269 268 268 268 267 267 267 267 266 266 266 267 267 266 266 265 265 264 263 262 262 263 264 264 265 266 267 267 267
263 264 264 265 266 266 267 268 268 269 270 270 271 272 272 273 274 276 276 276 276 276 276 277 277 277 277 278 279 280 280 280 279 279 279 280 280 281 281 280 278 276 273 272 271 271 270 270 270 269 269 270 270 270 269 268 268 268 267 267 267 267 266 266 266 266 267 267 266 266 265 265 265 265 264 262 262 263 264 265 265 266 267 267 268
262 263 263 264 264 265 266 267 267 268 269 270 272 273 274 274 275 276 276 276 276 276 276 276 276 277 277 278 279 279 280 280 279 279 279 280 280 280 280 279 277 274 272 271 271 271 270 269 268 269 270 270 270 269 268 268 267 267 267 267 267 267 266 266 266 266 266 266 266 265 265 266 266 265 264 263 263 263 264 265 266 266 267 267 267
261 262 262 263 264 265 266 266 267 268 269 270 272 273 274 275 275 275 275 275 275 275 275 276 276 277 277 277 278 279 279 279 279 279 279 279 280 280 279 278 276 273 271 270 270 270 269 269 269 270 270 269 269 268 268 267 267 267 267 267 267 266 266 266 266 266 266 266 266 266 266 266 266 265 264 264 264 264 265 265 266 266 267 267 267
261 262 262 263 263 264 265 265 266 267 269 270 272 273 274 275 275 275 275 275 275 275 275 275 276 276 277 277 278 279 279 278 278 278 279 279 280 279 278 276 274 271 270 270 269 269 269 270 270 270 270 269 268 268 267 267 267 267 267 267 266 266 266 266 266 266 265 265 266 266 266 266 265 264 263 264 264 264 265 265 265 266 267 267 267
260 261 261 262 262 263 263 264 265 266 267 268 271 273 274 275 275 275 275 275 275 275 275 275 276 276 277 277 278 279 278 278 278 278 278 278 277 276 275 273 272 271 272 271 270 270 271 271 270 270 269 268 268 267 267 267 267 267 267 266 266 266 266 265 265 265 265 265 265 265 265 265 265 264 263 263 264 264 264 265 265 266 267 267 267
260 260 261 261 262 262 263 263 264 265 266 267 269 272 274 275 274 274 274 274 274 275 275 275 275 276 276 277 279 279 278 277 277 277 276 275 274 273 272 271 271 272 272 271 271 272 272 271 270 269 268 268 267 267 267 267 267 267 266 266 266 265 265 265 265 265 265 265 265 265 265 265 265 264 264 264 264 264 264 265 266 267 267 267 266
260 261 261 261 262 262 263 264 264 265 267 268 269 271 273 274 274 274 274 274 274 274 274 275 275 275 276 277 279 278 277 276 275 274 273 272 271 270 270 271 271 271 271 270 271 271 271 270 269 268 267 267 267 267 267 267 267 266 266 266 266 265 265 265 265 265 265 265 265 265 265 265 265 264 264 264 264 264 265 265 266 266 267 266 266
261 261 262 262 262 263 264 264 265 265 267 268 270 272 273 274 274 274 274 274 274 274 274 275 275 275 276 277 277 276 273 272 271 271 270 269 268 268 269 271 271 271 270 270 270 270 269 269 268 267 266 266 266 266 266 266 266 266 266 266 265 265 265 265 265 265 265 265 265 265 265 265 265 264 264 264 264 265 265 266 266 266 266 266 266
262 262 262 263 263 264 264 265 266 267 268 270 271 273 273 273 273 273 273 273 273 274 274 274 274 274 274 274 273 271 269 269 269 268 267 267 267 267 268 270 270 270 270 270 269 268 268 268 267 267 266 266 266 266 266 266 265 265 265 265 265 265 265 264 264 265 265 265 265 265 265 264 264 264 264 265 265 265 265 266 266 266 266 266 266
264 264 264 264 264 265 265 266 266 267 269 271 272 273 272 272 273 273 273 273 273 273 273 272 272 271 270 269 268 268 267 267 266 265 265 266 267 268 269 269 269 269 269 268 267 267 267 266 266 266 266 266 266 265 265 265 265 265 265 265 265 264 264 264 264 265 265 265 265 265 264 264 264 265 265 266 265 265 266 266 266 266 266 266 266
264 265 266 266 266 266 267 267 268 268 270 271 271 272 272 272 271 271 272 272 271 271 270 269 268 268 267 267 266 266 265 265 264 263 264 266 267 268 269 269 269 268 268 267 266 266 266 265 265 266 266 265 265 265 265 265 265 265 264 264 264 264 264 264 264 264 264 265 265 265 265 264 265 265 266 266 266 266 266 266 266 266 266 266 265
264 264 265 266 267 267 268 268 269 269 269 270 270 270 269 270 270 270 269 269 269 268 267 267 266 265 265 264 264 264 263 263 261 262 264 266 267 267 268 268 268 268 267 266 266 265 265 265 265 265 265 265 265 265 265 264 264 264 264 264 264 264 264 264 264 264 264 265 265 266 265 265 265 265 266 266 266 266 266 266 266 266 266 266 265
263 264 264 265 265 266 266 267 267 267 268 268 268 267 267 268 268 268 267 266 266 265 265 265 264 264 263 263 263 263 262 261 261 262 264 265 266 266 267 267 267 267 266 266 265 265 265 265 265 265 265 264 264 264 264 264 264 264 264 264 264 264 264 264 264 264 264 265 265 265 265 265 265 266 266 266 266 266 266 266 266 266 266 265 264
262 263 263 264 264 264 264 265 265 265 266 266 266 266 266 266 266 266 265 265 264 264 263 263 263 263 262 262 262 262 261 261 261 263 265 265 265 266 267 267 266 266 265 265 265 265 265 265 265 264 264 264 264 264 264 264 264 264 264 264 264 264 264 264 264 264 264 265 265 265 265 266 266 267 267 266 266 266 266 266 266 266 265 265 264
Wind_Speed
23 25 27 28 31 33 34 35 35 35 35 35 36 37 37 38 39 38 39 41 42 42 44 45 45 46 46 47 47 46 46 46 46 46 45 45 44 43 42 42 41 40 39 37 36 35 35 34 32 31 30 29 29 28 27 26 24 23 23 23 23 22 22 20 13 8 13 14 14 15 15 16 17 16 17 19 19 20 21 22 23 24 25 25 26
24 26 27 27 30 32 33 34 34 34 35 36 38 38 38 38 39 38 40 41 41 42 44 44 45 45 45 46 46 46 46 46 46 46 46 45 44 43 43 42 42 40 39 38 38 37 35 34 33 32 31 30 30 29 29 28 27 26 26 26 26 25 24 23 18 11 12 14 14 15 14 12 12 12 15 17 18 19 20 21 22 23 23 24 25
24 25 26 28 31 32 33 34 34 34 36 37 39 40 39 39 39 40 42 41 40 41 42 43 44 45 45 45 45 45 46 46 47 47 47 47 46 45 44 44 43 42 41 40 39 38 36 35 34 34 32 31 31 30 30 29 29 29 28 28 27 26 25 23 20 15 13 13 12 11 8 8 10 13 14 16 16 16 19 20 20 21 22 22 23
24 24 25 27 30 31 33 34 34 35 36 38 40 41 41 41 41 42 42 40 40 41 40 41 42 43 44 45 45 46 47 47 47 47 48 48 47 46 45 44 44 43 43 42 41 40 39 38 37 36 35 34 33 32 31 31 30 30 29 28 26 25 24 23 20 17 14 12 12 11 9 9 12 13 13 15 15 15 17 18 18 19 20 20 22
26 24 24 26 28 30 33 33 33 35 36 39 41 42 42 43 42 42 41 40 40 40 40 41 41 43 44 46 47 48 48 47 47 47 47 47 47 46 45 45 46 45 44 43 42 42 41 40 39 37 36 35 34 34 34 33 32 30 29 28 26 24 22 21 20 18 16 15 15 14 13 12 12 12 12 13 14 15 16 16 16 17 18 19 21
32 29 26 25 26 28 30 32 33 36 37 39 41 41 42 42 41 41 41 41 41 41 42 43 43 44 45 46 47 48 47 47 48 48 48 47 47 46 45 45 46 46 45 44 43 43 42 41 40 39 39 38 37 37 35 34 33 31 30 28 26 23 21 19 18 17 16 16 15 14 13 12 12 13 11 10 13 15 16 16 15 16 18 20 21
36 35 33 29 27 26 28 30 33 35 37 39 40 40 40 40 40 41 41 41 42 42 42 44 45 46 46 46 46 46 47 47 48 47 47 47 47 46 45 45 45 45 45 45 45 44 44 43 42 41 41 41 40 38 37 35 34 32 31 29 26 23 21 19 18 17 16 15 14 14 13 13 13 12 9 8 10 12 13 14 15 17 19 22 24
33 33 33 32 31 31 30 31 32 34 36 37 38 38 37 38 40 40 40 41 43 43 43 44 45 45 45 45 45 44 45 46 46 46 45 46 46 47 46 46 45 44 44 44 45 45 44 44 43 43 42 41 40 39 38 37 35 33 31 29 26 24 22 20 19 17 16 15 13 13 13 13 12 10 7 7 8 10 11 13 16 19 21 22 23
30 30 29 30 32 33 33 32 32 32 33 34 35 36 37 38 39 39 40 42 43 42 42 42 42 42 43 44 44 44 45 46 47 48 47 47 47 47 48 47 46 44 43 43 43 44 45 45 44 43 42 40 40 39 37 36 35 34 32 30 27 25 23 22 21 19 17 15 13 11 11 12 11 8 7 6 6 8 11 14 17 19 21 22 21
30 30 31 32 33 34 34 33 32 32 32 33 34 35 36 37 37 38 40 41 41 40 39 39 40 42 42 42 42 43 45 46 48 50 50 50 49 47 46 45 45 45 44 43 42 42 43 44 44 42 41 40 39 38 36 35 34 33 31 29 28 27 26 24 22 20 17 15 14 12 10 11 10 7 6 6 6 8 12 15 16 17 19 20 19
31 30 31 34 35 36 36 35 33 31 31 32 33 34 35 35 36 37 38 38 38 38 38 39 41 41 41 41 41 43 44 44 46 48 50 51 50 47 45 44 44 44 44 44 44 43 42 43 42 41 40 40 39 37 35 34 33 31 28 26 26 27 28 27 24 22 19 17 15 13 11 10 9 7 6 6 6 9 12 12 13 15 16 16 16
30 28 29 32 34 35 37 36 35 33 31 31 32 33 33 33 33 34 35 36 36 36 38 40 40 39 39 40 41 43 43 43 44 47 49 50 50 48 45 44 44 44 44 45 45 45 43 43 42 41 40 40 39 37 34 32 31 30 27 25 25 26 26 25 23 22 20 18 17 15 12 9 8 7 6 6 7 10 11 11 11 14 15 16 16
29 27 28 30 32 33 35 35 35 34 32 31 30 30 30 31 31 33 34 34 34 35 37 38 38 39 39 40 41 42 42 42 44 46 48 50 50 49 45 44 45 45 45 46 45 45 44 43 41 40 40 39 38 36 33 31 29 27 25 25 25 25 23 22 19 18 18 18 17 16 14 10 8 8 7 6 9 10 10 11 11 13 15 14 16
28 27 29 30 31 33 34 34 34 35 34 31 29 28 28 30 31 32 32 32 32 34 36 37 37 38 39 40 40 40 41 42 43 45 47 48 50 50 46 44 44 44 44 45 44 44 45 44 43 42 40 39 38 37 34 32 29 27 26 26 26 26 24 22 20 18 17 17 17 17 15 12 10 10 9 8 9 11 10 10 11 13 15 18 22
26 26 28 30 31 33 34 34 34 34 34 32 28 26 27 28 30 30 30 31 32 34 35 36 37 37 38 39 39 39 40 40 41 43 45 46 48 48 46 43 42 41 41 41 41 42 43 43 44 44 43 40 38 38 37 34 32 30 29 28 28 27 26 25 24 23 21 20 19 18 15 12 11 11 9 8 8 10 11 12 15 18 21 24 27
28 28 30 31 32 33 33 34 34 34 34 33 30 28 27 27 28 29 29 29 31 32 32 33 35 36 37 38 38 38 38 38 39 41 42 43 44 44 43 41 39 39 39 39 39 40 40 41 42 42 43 42 39 38 37 35 34 32 31 30 29 28 28 27 26 23 22 21 18 16 13 11 11 10 9 8 8 11 13 17 20 21 21 22 24
28 30 32 33 33 34 33 33 33 33 32 32 31 31 28 27 27 27 27 28 29 30 31 32 34 35 36 37 38 37 36 36 38 39 39 40 41 41 41 40 38 38 38 39 39 38 38 40 41 41 41 41 38 36 35 34 34 34 33 31 29 27 27 26 23 20 19 17 15 13 12 11 11 10 9 8 8 10 13 17 19 18 17 14 15
27 29 31 33 33 34 34 33 33 33 32 31 30 30 29 28 27 25 26 28 29 31 31 31 32 33 35 36 37 37 35 36 38 39 39 40 41 41 40 39 37 37 36 36 36 36 37 38 39 40 39 39 37 33 30 31 34 35 33 30 27 27 26 24 20 18 17 16 15 14 12 11 11 10 11 10 9 10 13 18 20 18 16 12 13
26 28 31 33 33 33 34 34 33 33 32 32 31 30 29 28 26 25 25 28 29 30 29 29 30 31 33 34 35 35 35 34 36 37 37 38 40 41 40 38 36 35 34 33 33 33 34 35 36 37 36 36 36 33 30 30 34 35 33 29 26 26 26 23 21 20 18 17 17 15 14 13 13 12 13 13 14 15 17 20 20 17 16 15 15
27 29 31 32 32 33 33 33 33 33 34 34 32 30 28 27 26 24 25 27 27 27 27 27 28 29 30 31 32 34 34 34 35 35 35 37 40 41 41 39 37 35 33 33 32 32 33 33 33 33 33 34 35 33 30 30 32 33 32 29 27 26 24 22 21 20 19 18 17 16 15 14 13 13 14 16 17 18 18 18 16 14 15 17 17
28 30 32 32 32 32 32 31 33 34 35 35 34 32 29 26 25 24 25 25 25 25 25 25 26 27 27 29 30 32 32 33 35 35 35 37 40 41 42 40 38 35 33 32 33 33 34 34 33 31 31 32 32 31 30 29 30 31 31 30 27 23 20 20 21 19 18 17 16 15 16 15 14 15 17 18 18 18 17 16 15 14 15 18 19
29 31 32 32 32 32 32 32 33 34 35 34 34 33 31 26 24 23 23 24 24 24 24 23 24 24 24 26 28 30 31 32 34 35 35 36 39 40 41 40 38 36 34 32 32 33 34 36 36 33 32 32 32 30 29 28 28 28 29 26 22 19 18 21 21 19 17 17 16 16 17 16 16 16 16 17 16 16 16 16 16 16 16 18 20
31 33 33 32 32 33 33 34 33 33 34 33 32 32 31 27 24 22 22 22 23 23 22 22 21 21 22 23 26 28 30 30 33 36 36 36 37 38 40 40 38 37 35 34 33 34 36 37 38 36 33 31 30 30 29 28 28 27 26 23 20 20 21 22 21 19 18 16 16 17 18 17 16 15 15 15 15 15 16 16 16 16 17 20 22
32 33 33 32 33 34 34 34 33 33 34 34 32 31 30 27 24 23 22 22 21 21 20 20 19 19 19 21 24 26 29 29 31 35 37 36 36 36 36 39 39 37 35 33 33 35 38 38 39 37 33 29 28 28 27 27 27 26 23 22 22 23 23 22 19 18 17 17 17 18 17 15 14 14 13 14 14 15 16 16 17 18 19 22 25
31 32 33 34 35 35 35 34 34 34 34 32 31 31 29 26 24 24 22 22 21 20 19 19 19 18 18 19 21 24 27 28 30 33 35 36 37 36 34 36 38 37 35 32 31 34 37 38 36 33 29 27 26 26 27 27 26 23 22 23 25 25 23 21 19 18 18 18 18 17 15 13 12 12 12 13 14 16 17 17 18 20 21 24 26
31 32 33 35 36 35 35 36 35 34 33 32 31 32 30 27 25 24 22 22 21 20 19 19 18 18 18 20 21 23 26 27 27 29 31 33 35 36 34 34 35 36 37 35 31 31 33 33 31 28 27 28 28 27 28 27 24 22 23 25 26 24 22 21 20 20 19 18 16 14 12 11 11 11 12 14 15 16 17 18 20 21 22 24 27
32 34 35 35 35 35 34 34 34 33 32 31 30 31 30 28 26 24 23 22 21 20 20 19 18 18 19 19 20 23 26 27 26 27 29 30 32 33 33 33 34 35 36 35 32 30 29 28 27 26 26 26 26 27 27 25 24 25 25 25 24 22 21 20 19 18 17 16 13 11 11 10 10 12 13 14 16 17 17 17 20 21 22 23 26
32 35 37 36 34 33 33 33 33 32 30 30 29 29 29 28 27 27 27 26 24 22 21 21 22 22 21 20 19 20 23 27 28 29 30 30 31 32 32 33 34 34 35 34 31 29 29 28 27 27 26 25 24 26 27 27 26 26 25 23 22 21 19 18 17 16 15 13 11 10 9 9 10 12 13 14 16 17 17 17 19 21 21 21 23
34 36 37 35 33 32 30 30 30 30 30 30 30 30 31 30 29 31 33 32 31 29 26 25 27 27 26 24 22 19 21 27 32 34 34 34 34 34 34 34 35 35 36 37 34 31 29 29 30 31 30 28 27 28 28 28 27 25 24 23 22 21 20 19 17 15 13 11 9 8 8 9 11 12 13 15 16 17 17 17 18 20 21 20 21
34 35 34 32 31 30 28 28 28 28 28 29 29 30 32 33 33 34 35 35 35 35 33 32 31 30 29 30 30 28 29 32 33 33 34 34 35 35 34 34 37 37 37 38 38 35 32 30 31 32 33 31 30 30 30 30 29 27 25 23 22 21 21 19 16 14 11 10 9 8 8 9 10 11 12 14 16 17 17 17 18 19 21 21 22
31 32 32 31 30 28 27 28 28 28 28 29 29 29 30 31 32 34 35 34 33 32 32 33 32 30 30 31 31 30 29 28 28 30 32 33 34 35 33 31 34 36 38 38 36 33 31 30 29 30 32 31 30 30 30 30 30 28 26 24 23 22 21 18 16 14 12 10 9 8 8 8 9 10 11 13 15 17 17 17 18 20 21 22 22
29 31 33 32 31 30 28 28 30 30 29 29 28 27 27 26 25 28 31 32 30 29 29 30 31 30 29 28 28 28 27 25 25 29 32 33 34 36 34 32 33 36 39 39 35 31 30 29 27 27 29 28 28 29 30 30 30 29 27 26 24 22 19 17 14 13 11 9 8 7 7 7 8 9 10 12 14 16 17 17 18 20 21 22 23
32 34 34 33 32 31 29 29 30 29 28 27 26 25 23 19 17 19 22 25 27 29 30 30 29 30 29 28 28 28 28 27 27 29 32 34 35 36 36 35 35 38 40 37 32 28 28 27 25 26 28 28 28 29 30 30 30 28 27 25 23 20 18 15 13 12 10 8 8 7 6 6 7 8 10 12 13 16 17 18 19 21 21 21 22
34 35 34 33 33 32 30 27 27 27 27 27 26 25 23 21 19 18 16 14 16 21 26 29 29 29 29 29 28 27 26 28 29 30 32 33 35 37 36 35 36 40 41 37 31 28 28 26 24 26 27 27 27 30 31 30 30 28 26 24 21 18 16 14 12 11 9 8 7 7 6 5 6 7 10 12 14 16 18 19 20 21 20 20 22
34 35 35 34 33 32 30 28 26 27 26 25 24 23 23 23 22 21 17 13 11 13 18 24 27 28 28 28 28 27 27 28 29 30 31 32 33 36 35 32 33 36 37 34 32 30 29 27 27 27 28 28 29 32 33 32 30 29 27 24 21 18 16 14 11 10 9 8 8 6 5 4 6 8 11 13 15 17 19 20 20 21 21 21 23
33 33 33 33 32 33 34 32 30 30 29 27 27 26 25 23 21 20 20 18 16 16 17 19 23 26 27 28 27 27 28 28 28 29 31 32 34 37 35 30 29 29 28 28 29 29 28 28 28 29 29 29 30 32 32 31 29 27 24 22 19 17 14 12 11 9 8 8 7 5 4 5 7 9 11 14 15 17 19 22 22 21 21 22 22
36 34 32 32 32 33 35 34 33 33 31 30 28 26 25 25 24 21 19 18 18 17 17 17 17 18 21 26 28 28 28 27 27 28 30 32 35 37 34 30 28 27 25 26 28 29 29 29 29 30 30 31 32 32 30 29 27 25 22 20 17 15 13 11 10 9 8 7 6 5 5 6 8 10 11 13 16 17 19 22 23 22 22 22 22
36 33 31 30 30 30 29 29 29 29 28 26 26 24 23 24 24 22 19 18 17 16 16 16 16 15 18 23 26 27 27 27 27 27 29 32 35 35 32 30 30 28 28 29 31 32 32 31 31 32 33 33 33 32 30 28 26 23 21 19 16 13 12 11 9 7 7 6 5 5 6 7 8 10 12 14 16 19 20 22 22 22 22 22 21
33 33 34 34 33 31 30 29 28 27 25 24 22 21 21 22 21 20 18 16 16 16 15 15 16 17 18 21 23 24 24 23 24 25 26 29 32 32 31 29 28 27 29 31 32 32 31 31 31 32 33 33 32 30 28 26 24 21 19 17 15 13 12 10 8 6 5 5 6 6 6 7 8 10 13 15 18 20 21 21 22 22 22 23 23
33 33 32 31 30 29 28 27 26 25 24 23 21 20 20 20 18 18 17 15 14 15 15 15 16 18 20 21 23 25 23 21 22 24 25 27 29 29 29 28 27 27 29 32 32 32 31 32 32 33 34 32 30 28 26 24 22 20 18 16 15 13 11 9 7 6 5 6 6 6 6 7 9 12 14 16 18 19 21 22 22 22 22 23 26
31 29 29 29 28 27 26 26 25 24 24 24 22 21 21 20 18 18 17 16 15 15 15 16 18 20 21 23 26 28 26 23 23 24 25 25 26 26 26 27 28 30 32 33 33 33 33 34 34 34 33 31 28 26 25 23 21 20 17 15 13 11 10 8 7 5 5 5 5 5 6 8 10 13 15 17 18 20 22 23 23 22 22 23 27
31 29 28 27 26 25 24 24 24 25 26 26 24 22 21 20 19 18 17 16 16 15 15 16 18 19 21 24 27 29 27 23 22 23 22 22 23 23 25 27 30 33 35 35 35 35 36 36 35 33 32 30 28 26 25 23 21 18 16 14 12 10 9 7 6 5 4 5 5 6 7 9 11 13 16 18 20 21 23 23 22 21 22 25 27
29 27 26 25 24 23 23 23 22 23 23 24 24 24 22 20 19 19 17 17 17 16 15 15 16 17 19 22 27 29 26 22 21 21 21 21 23 25 26 29 32 34 35 35 35 36 36 36 34 31 29 27 26 24 22 20 18 16 14 12 11 9 8 7 5 5 4 5 5 6 8 10 13 15 17 19 20 21 22 22 22 22 23 26 27
27 26 25 24 23 23 23 23 22 22 22 22 23 24 22 19 17 17 16 15 15 15 15 14 15 16 17 20 24 25 23 20 20 21 22 23 25 27 29 32 33 33 33 32 33 34 34 33 31 29 26 24 22 21 19 17 15 14 12 11 10 9 7 6 5 4 4 5 6 7 9 12 13 16 18 19 20 21 21 21 22 24 25 26 26
26 24 23 23 22 22 21 21 21 22 22 21 21 21 19 16 15 15 14 14 13 13 14 14 15 16 17 19 20 20 20 21 22 23 24 25 27 28 31 34 34 33 33 33 32 31 31 30 29 28 26 24 22 19 17 15 13 12 11 10 9 7 5 4 4 4 5 6 7 8 11 13 14 17 19 19 20 22 22 22 23 24 26 26 25
26 24 23 22 21 20 20 21 20 19 19 19 18 16 15 14 14 14 13 13 12 12 13 13 14 14 14 15 16 19 21 23 25 25 26 27 29 31 32 32 33 33 34 33 31 29 27 26 26 25 24 22 20 17 15 13 12 10 10 8 7 5 4 4 4 5 5 6 8 10 11 13 16 18 20 22 24 24 22 22 23 25 25 25 26
23 23 23 22 20 19 18 18 18 18 18 18 16 14 12 12 12 11 11 11 12 12 11 11 12 14 15 17 20 22 24 25 26 27 28 31 34 35 34 34 35 35 33 31 28 27 25 24 23 22 21 20 17 15 14 12 10 9 8 6 5 5 4 5 6 6 7 7 9 10 11 14 17 20 22 25 25 23 22 23 24 25 26 25 26
20 20 19 17 16 16 16 16 16 17 16 13 10 9 8 9 9 9 10 11 12 13 14 15 16 18 19 20 22 24 25 26 27 28 32 36 38 37 36 36 36 34 32 30 28 26 25 24 22 20 19 18 16 14 12 10 8 7 6 5 4 4 4 6 7 7 8 8 9 10 12 15 19 22 24 24 23 22 23 25 25 25 26 25 26
19 18 16 13 9 6 6 7 7 6 4 4 6 7 8 9 10 10 12 13 14 16 18 19 19 21 22 23 24 25 27 28 28 32 36 39 39 37 36 35 33 32 31 30 28 26 24 23 21 19 17 16 14 12 10 8 7 6 4 4 4 4 5 6 7 7 8 8 8 10 13 17 21 23 23 22 22 22 24 25 25 25 25 25 26
19 18 17 17 16 13 11 10 9 8 9 9 10 10 11 11 12 12 15 16 16 17 19 20 21 22 23 24 25 27 28 29 32 36 39 39 37 35 35 33 31 30 29 28 27 26 23 21 20 18 16 14 12 10 8 7 5 5 4 4 4 4 5 6 7 8 7 6 8 11 15 19 23 24 22 21 22 23 24 24 24 25 25 25 26
20 19 19 20 19 18 17 16 15 14 13 13 13 12 12 13 14 14 15 16 17 18 20 21 21 21 22 24 26 28 30 32 35 38 39 38 35 34 33 32 31 30 28 27 26 24 21 19 18 16 13 12 10 8 6 6 5 4 4 3 3 4 5 6 7 7 6 6 9 14 17 21 23 22 20 20 23 23 24 25 25 24 24 25 26
Wind_Direction
265 260 254 248 243 241 240 240 240 239 238 236 236 236 234 232 231 229 227 226 222 219 218 217 216 215 214 213 213 213 213 213 213 213 212 213 214 214 215 215 214 214 214 214 213 213 213 212 212 210 208 207 207 207 207 207 207 207 208 206 203 201 196 186 184 231 253 252 254 260 271 280 285 291 296 303 310 316 322 329 334 336 336 337 338
274 269 266 261 256 252 248 246 244 242 240 238 238 237 236 235 233 231 231 229 226 223 220 218 216 215 214 213 212 212 212 212 212 211 211 211 212 212 213 213 212 212 212 213 212 212 212 212 211 210 209 208 208 208 208 207 206 206 206 206 205 203 201 197 190 203 248 262 262 265 275 281 281 287 294 300 309 318 323 329 333 334 336 338 338
294 283 274 267 263 260 256 252 249 246 243 241 239 239 238 237 235 234 233 231 228 227 224 220 217 215 214 213 212 212 212 212 212 211 211 211 210 211 212 212 211 211 211 212 211 210 210 210 210 209 207 207 208 209 210 209 208 208 208 208 208 205 204 204 199 197 224 255 265 265 268 269 274 287 295 297 302 309 315 323 330 332 335 338 337
321 304 290 278 270 265 261 257 253 249 246 243 242 240 239 238 236 235 234 231 229 227 226 224 220 216 213 212 211 212 212 212 212 212 211 211 211 210 211 211 211 211 212 212 211 210 209 209 209 209 207 205 207 208 208 208 209 210 210 209 210 209 205 205 207 205 211 234 252 255 258 267 276 286 291 291 294 298 304 313 322 327 332 335 334
340 325 308 293 282 273 267 262 258 254 251 248 246 243 241 239 237 235 233 231 229 227 224 223 222 219 215 213 212 212 212 212 211 211 211 211 211 211 210 211 211 212 212 213 212 211 211 210 209 208 206 205 206 208 208 209 209 210 211 211 209 208 206 204 208 210 212 224 242 257 266 272 279 282 279 282 290 295 302 309 318 325 329 330 328
350 341 327 308 292 282 274 268 263 259 257 254 252 248 244 242 239 236 233 231 229 226 224 222 221 220 219 217 214 213 212 212 212 212 211 210 210 210 210 211 211 211 212 212 212 212 212 211 211 209 207 207 208 209 209 209 209 210 211 211 209 206 204 204 205 207 212 223 237 255 267 271 271 269 268 278 289 296 305 314 322 327 326 324 320
355 351 343 331 314 299 287 278 272 267 263 260 256 253 249 245 241 238 235 232 229 226 224 222 221 221 221 220 217 214 212 212 212 212 210 209 208 208 209 210 211 211 211 211 212 213 213 212 212 212 211 211 211 211 210 209 209 211 211 209 207 204 202 202 203 205 210 219 231 245 258 266 263 260 269 285 291 300 312 317 321 324 322 320 316
357 355 352 346 336 325 311 297 286 277 271 265 260 256 252 248 243 240 236 233 231 228 225 224 222 221 221 220 218 216 213 212 211 210 209 209 207 207 208 209 209 209 210 211 211 212 212 212 213 214 214 214 215 214 213 211 209 208 210 208 206 203 201 201 200 202 207 214 226 238 249 256 255 255 268 283 292 308 320 318 316 318 317 316 315
356 356 356 353 348 341 331 317 302 289 279 270 264 258 254 249 245 241 237 234 232 230 227 225 223 222 221 220 218 216 214 213 212 210 208 207 207 207 208 208 208 207 207 209 210 211 211 212 212 214 215 215 216 216 216 216 213 210 208 206 204 202 201 200 199 200 201 208 221 232 237 242 245 249 260 273 291 305 315 317 315 316 316 314 313
354 355 356 355 353 350 345 335 321 305 291 279 270 263 257 252 247 242 238 235 233 230 227 225 224 223 221 220 218 216 216 215 214 212 210 208 207 207 207 207 207 206 205 205 207 209 210 211 211 212 214 214 215 216 216 216 217 217 215 211 207 204 201 199 199 199 198 203 214 220 225 236 242 248 262 279 296 306 317 322 318 318 320 316 313
351 352 353 352 352 352 351 346 337 323 307 292 281 271 262 255 249 244 240 236 233 229 226 225 224 223 222 221 219 217 218 217 216 214 212 211 208 206 206 206 206 206 206 204 205 206 207 209 209 209 210 211 212 214 215 215 216 217 217 217 216 213 208 202 198 197 198 203 211 216 223 235 243 250 262 275 297 311 319 323 318 318 319 314 313
346 346 348 350 351 352 351 349 344 336 323 307 293 280 269 259 251 245 241 237 233 229 226 225 223 222 222 221 221 220 219 219 217 215 213 212 210 208 206 206 206 206 207 206 205 204 204 205 206 206 206 208 209 209 209 212 214 214 213 214 215 216 216 215 209 201 199 202 209 216 221 228 238 245 251 268 299 314 318 317 312 310 306 302 304
341 341 344 347 350 351 350 348 345 340 333 322 306 290 276 264 254 248 243 239 234 230 227 226 224 222 221 221 222 221 220 219 217 216 214 213 212 210 207 207 207 207 207 207 205 203 202 201 201 202 203 205 206 205 203 204 207 209 210 209 209 211 214 218 215 208 205 208 213 220 225 227 230 237 247 273 301 307 303 301 300 298 296 296 298
337 338 341 344 347 348 348 346 344 340 337 330 316 300 283 270 260 252 246 240 234 231 229 227 225 223 221 221 222 222 222 220 217 215 214 212 212 211 209 208 208 208 208 207 205 203 202 199 198 199 200 201 202 202 200 199 199 200 202 203 206 209 210 212 214 216 218 219 222 228 232 231 231 243 263 285 298 292 284 290 297 297 296 295 295
334 336 339 342 344 345 344 343 341 339 337 332 322 307 292 279 268 257 248 241 236 232 230 228 226 225 223 222 222 223 222 220 217 215 213 211 211 211 209 208 208 208 209 208 207 205 203 201 200 200 200 200 200 201 201 199 196 196 198 202 207 211 212 214 215 217 220 222 228 233 235 238 244 255 274 291 295 288 284 288 291 294 299 299 297
335 336 338 340 340 340 340 338 337 337 335 332 324 314 302 289 276 264 253 245 239 235 233 230 228 226 224 222 222 223 222 219 215 213 211 209 209 208 207 207 206 207 207 207 207 206 204 202 201 201 201 200 200 202 202 199 195 195 198 203 208 211 213 214 215 216 219 222 226 231 235 245 253 258 270 283 284 285 289 287 287 294 303 304 299
333 335 335 335 335 335 335 334 333 333 332 329 324 317 309 298 285 272 258 249 243 238 234 232 229 227 225 222 221 221 221 217 214 212 207 205 205 205 204 204 204 205 205 206 206 206 205 204 202 201 202 201 200 200 200 199 196 196 199 202 206 210 214 217 217 219 222 223 226 231 235 242 249 255 262 268 274 283 289 289 290 298 305 303 297
329 331 330 329 329 330 331 330 329 329 327 325 321 316 310 301 291 278 261 251 246 241 237 234 231 228 226 223 222 221 220 216 213 209 204 202 204 204 201 201 202 203 203 203 204 204 204 204 204 202 201 200 199 196 195 196 197 197 198 199 202 209 214 214 212 214 219 224 225 225 230 239 246 251 252 252 262 277 282 285 290 293 291 283 283
325 326 324 324 325 325 326 327 326 324 322 320 318 315 310 303 294 280 265 254 248 243 239 234 232 230 227 226 223 221 220 216 211 207 202 200 203 203 200 198 200 201 199 198 199 201 202 202 203 202 202 200 198 194 190 194 198 198 197 196 200 208 211 207 207 212 216 216 217 222 234 245 246 248 254 261 273 283 287 290 292 289 282 275 274
320 320 319 319 320 320 322 322 321 320 318 317 316 313 310 304 295 283 270 260 252 246 241 236 233 232 229 227 225 222 220 217 210 206 202 201 203 203 199 198 199 198 195 194 194 195 198 199 199 200 201 201 199 193 190 194 199 198 195 196 201 205 204 204 207 211 212 213 220 231 239 244 246 255 270 282 291 298 299 301 301 292 281 276 274
317 317 316 315 314 315 317 318 317 316 314 314 313 310 308 304 295 285 275 265 255 247 242 237 235 234 231 228 225 222 221 218 212 207 204 204 206 204 200 200 200 196 193 192 193 194 195 196 195 194 197 200 198 193 190 194 199 200 198 200 203 201 198 202 205 206 211 220 227 232 234 241 253 266 280 291 299 304 304 304 304 296 282 276 275
315 315 312 311 310 311 313 314 313 311 310 310 308 306 305 301 293 284 275 265 255 247 243 237 233 233 231 229 227 223 221 220 215 210 207 208 208 205 203 203 201 196 193 193 195 196 195 193 192 191 193 196 196 193 192 193 195 199 201 202 202 200 199 205 206 206 214 221 225 231 240 252 265 276 288 296 300 304 305 306 306 300 288 277 272
313 311 308 307 307 309 309 310 309 307 305 305 302 299 299 295 288 279 268 259 252 246 241 235 231 229 228 227 226 223 220 219 216 213 210 210 210 208 205 205 203 199 197 196 196 197 196 193 193 194 193 194 194 194 194 193 195 199 201 201 201 202 204 207 206 207 214 219 226 239 251 262 274 285 293 298 302 305 307 308 305 298 289 283 278
310 306 305 305 305 306 306 305 304 302 300 299 295 291 289 285 278 270 259 250 245 243 239 232 227 225 225 224 224 222 219 217 216 214 212 211 212 208 203 203 204 202 201 201 200 198 197 196 196 196 194 193 193 192 192 193 195 196 197 198 201 202 202 203 203 205 214 223 233 246 256 266 278 289 294 299 305 307 305 303 299 294 289 286 285
306 302 301 302 301 302 302 300 298 296 295 292 287 283 280 274 265 259 251 240 236 237 236 230 225 226 227 224 222 221 218 216 216 214 212 213 214 209 202 200 202 203 203 203 201 199 198 197 196 195 192 190 188 188 190 192 193 193 193 196 199 200 200 202 205 211 220 230 240 249 260 271 281 288 295 300 303 305 304 301 298 298 297 296 294
301 299 297 297 297 298 298 296 295 293 291 288 282 278 274 266 257 252 244 235 232 233 232 229 226 227 230 228 225 220 215 214 215 214 213 213 215 214 208 199 196 200 203 203 200 197 196 194 191 189 189 188 187 188 189 190 190 190 191 193 196 199 201 206 211 218 226 233 241 251 263 274 282 289 295 299 300 303 304 303 303 304 305 304 299
299 296 294 293 293 294 293 292 292 291 289 285 280 275 271 263 254 246 238 231 230 230 229 228 226 225 229 230 227 219 212 211 213 212 212 212 214 217 214 201 193 195 199 198 194 190 187 185 185 186 186 186 186 185 183 181 180 180 184 190 196 202 209 215 220 224 229 233 239 250 263 273 282 290 295 298 301 305 307 306 303 302 304 303 296
296 293 291 290 289 289 288 287 288 288 287 283 278 272 268 261 251 245 241 234 229 227 225 224 225 226 227 226 221 214 210 211 211 209 208 208 209 213 212 200 191 190 190 187 185 182 179 177 177 179 178 175 175 177 178 179 179 181 186 192 199 206 211 214 217 221 225 231 238 248 262 273 282 290 297 300 303 308 312 309 303 299 300 298 291
293 290 288 287 285 284 283 283 283 283 283 282 277 271 268 262 255 253 250 244 238 235 232 229 229 228 227 223 216 207 207 214 214 211 209 208 206 209 209 199 191 188 185 180 176 173 172 171 170 169 169 169 172 176 179 181 184 187 193 198 202 205 207 207 211 216 220 227 236 245 258 272 281 289 297 300 303 310 314 309 302 299 297 291 284
291 287 286 285 283 283 283 282 281 281 281 281 280 276 273 267 259 256 255 252 248 243 240 239 239 235 231 228 224 219 220 222 217 210 208 208 206 209 211 202 192 186 178 173 172 170 170 171 170 169 170 173 177 179 181 183 186 189 193 197 200 202 203 205 208 209 211 217 227 240 252 266 280 290 296 300 304 310 312 306 299 296 292 286 283
286 284 284 284 283 285 285 283 282 281 278 278 279 279 278 274 265 257 254 253 251 245 241 241 242 238 234 233 232 228 227 224 215 205 204 205 206 210 211 201 190 182 173 168 169 171 172 174 175 175 176 178 180 182 184 186 189 189 189 192 197 199 201 203 202 202 207 214 222 238 252 263 278 290 295 301 303 304 304 302 297 291 287 284 283
280 280 282 283 284 285 285 283 282 280 277 276 275 274 274 275 271 264 257 252 248 244 240 239 239 237 235 234 231 227 221 215 207 204 203 202 204 209 208 197 185 179 174 171 172 176 177 178 179 178 178 179 182 185 187 187 188 190 190 191 194 197 200 201 201 203 210 217 225 239 253 265 279 290 297 300 299 296 296 296 293 289 288 286 285
276 276 278 280 281 282 281 279 278 276 275 274 272 269 268 269 269 269 265 256 249 245 241 239 238 237 235 233 229 225 219 211 205 203 202 201 201 205 206 198 186 179 176 175 176 179 181 182 181 180 181 182 184 185 186 187 188 191 193 194 195 195 196 199 204 211 217 226 235 244 255 270 282 292 297 297 295 293 292 291 290 289 287 286 289
274 273 275 277 278 278 276 274 273 271 269 267 265 263 262 261 263 267 267 259 249 244 241 239 237 236 235 233 229 223 215 208 204 203 202 200 199 202 203 198 189 184 182 181 180 179 179 181 182 182 183 185 185 185 185 187 188 191 193 195 195 194 195 199 208 217 224 229 236 244 255 271 285 294 296 296 296 294 292 290 289 288 286 287 291
274 273 275 276 276 275 274 272 271 271 270 268 268 266 262 258 256 255 254 252 247 242 239 235 233 232 231 229 226 220 214 208 204 202 201 199 198 199 199 195 189 188 186 183 181 180 178 179 181 183 185 187 188 188 187 187 188 190 191 192 193 194 197 203 208 216 225 232 236 243 257 282 299 299 294 293 294 293 290 289 287 286 288 291 293
277 276 276 276 274 272 272 271 271 272 273 273 274 274 274 270 263 253 247 246 243 240 239 234 229 227 227 226 223 218 214 209 203 201 200 198 196 197 197 191 187 187 184 180 178 177 176 179 182 183 185 187 188 188 188 188 189 190 191 192 195 196 197 201 204 210 223 234 240 250 274 292 298 299 296 293 293 290 288 288 289 288 290 294 295
280 276 273 271 270 269 268 268 267 268 269 269 266 264 265 269 267 258 249 243 238 237 238 231 222 219 222 224 222 218 213 208 203 201 202 199 198 200 198 191 184 181 175 173 173 173 173 179 184 184 185 187 187 187 188 189 189 189 190 192 195 195 193 195 200 207 221 234 243 264 284 290 295 301 299 293 291 291 289 290 291 291 294 298 300
279 276 274 275 275 274 271 271 271 271 269 266 260 255 255 260 261 255 248 241 236 234 232 225 215 210 212 217 217 213 210 206 202 202 203 201 201 202 199 191 183 177 172 171 173 173 173 178 183 185 185 186 186 186 187 187 187 189 190 190 190 190 189 192 197 205 222 240 252 265 278 289 301 308 303 293 290 290 290 290 291 294 298 301 300
281 281 281 281 280 277 275 274 273 272 270 266 259 252 250 253 253 248 242 238 234 231 226 221 216 213 213 212 207 202 202 201 199 198 200 201 202 202 197 189 181 174 169 169 171 172 174 176 179 181 182 182 183 184 185 186 187 188 189 189 188 188 190 193 198 206 223 241 249 259 278 297 308 309 304 297 292 290 288 289 293 298 300 300 299
282 281 281 279 277 274 273 271 268 265 263 261 256 251 250 250 248 243 237 233 230 227 224 220 218 216 213 207 198 193 194 197 196 195 195 197 200 199 194 185 176 168 163 164 167 172 174 174 175 177 178 179 181 183 184 186 186 185 187 188 188 187 189 193 199 211 225 237 245 258 280 298 305 305 303 300 295 290 289 292 296 298 298 298 300
280 279 279 278 276 275 275 274 271 268 266 263 258 252 249 248 244 239 232 228 227 225 221 222 223 219 212 206 198 194 194 195 195 195 195 197 196 191 184 178 170 162 159 162 167 171 173 173 173 175 175 177 180 181 181 183 184 184 186 188 187 187 192 196 203 217 228 235 246 262 279 293 301 302 300 299 295 292 293 296 298 298 298 300 301
279 277 275 274 272 270 269 268 268 269 269 269 267 260 250 242 238 234 229 225 224 222 220 221 222 218 212 208 202 196 194 195 195 194 193 190 183 173 168 165 162 161 165 169 172 173 172 171 171 172 173 175 178 179 180 182 183 184 187 189 189 192 197 199 205 218 227 236 250 265 280 294 300 298 296 296 295 295 298 300 299 298 300 301 302
276 273 271 269 266 264 264 264 266 267 265 263 264 264 257 243 231 228 227 224 221 219 217 216 215 211 208 206 202 197 193 191 189 184 177 170 162 157 156 157 160 165 171 175 175 174 172 169 168 170 173 175 177 179 180 181 182 185 188 190 195 201 203 202 209 215 224 241 258 271 284 295 299 298 299 300 298 298 300 300 298 299 302 302 302
274 270 268 265 262 260 260 260 262 265 265 262 260 261 258 246 231 226 226 222 218 217 214 210 204 197 194 198 199 194 185 177 173 167 159 153 150 150 153 157 161 166 169 170 170 170 168 164 164 166 169 172 174 176 179 180 183 188 192 194 201 207 206 204 207 213 230 252 268 280 289 297 301 302 302 303 301 300 300 298 297 301 304 303 302
274 268 264 262 259 257 256 256 256 259 262 261 258 254 249 242 232 225 222 218 214 211 208 202 195 188 187 190 189 178 164 156 153 150 146 144 146 150 155 160 162 163 162 161 160 162 162 162 163 164 165 168 171 173 177 180 183 189 195 199 203 206 205 206 212 223 246 264 277 287 292 299 305 307 306 304 303 301 297 294 296 301 303 302 303
277 268 261 256 253 251 251 253 254 255 257 257 253 246 237 231 226 221 216 212 204 197 192 187 181 177 173 166 155 145 140 140 140 139 141 144 146 149 152 154 155 155 154 153 154 156 158 160 163 164 165 166 168 171 175 179 184 190 195 198 200 203 206 214 228 243 256 267 278 287 295 303 310 311 309 308 306 302 295 294 299 302 302 301 304
288 278 265 255 249 246 249 252 253 255 259 257 250 237 225 218 213 206 198 190 182 173 165 155 147 141 136 133 132 132 134 136 137 138 142 145 145 146 146 146 146 146 147 147 149 152 155 157 160 162 163 164 166 169 173 177 182 189 194 198 202 205 215 231 243 251 259 266 277 289 301 309 311 312 312 310 306 299 294 297 302 303 301 301 306
310 303 291 275 257 248 248 251 252 253 254 248 230 207 192 181 173 166 161 155 146 137 129 123 122 123 124 125 127 130 132 132 132 136 141 143 143 143 143 144 144 145 145 146 148 152 154 156 159 161 162 164 167 170 172 176 182 187 194 206 211 214 234 247 248 255 263 270 280 298 311 312 310 310 309 305 299 296 298 302 303 301 300 303 307
336 336 337 339 335 306 275 263 253 243 218 165 138 127 126 129 129 126 124 121 118 118 121 121 121 122 123 123 125 128 130 129 128 132 137 139 140 140 141 142 143 145 147 148 150 153 156 157 159 161 162 164 167 168 170 175 182 186 197 216 222 230 245 251 253 262 268 271 287 310 316 313 308 305 301 297 297 301 304 304 301 300 301 304 308
356 359 4 11 17 22 28 38 49 60 73 87 92 92 95 100 102 103 107 109 109 110 115 117 118 121 123 125 127 129 129 130 131 134 137 138 138 139 140 141 142 145 148 150 152 153 156 157 158 160 162 163 164 167 169 173 182 192 203 217 229 241 248 251 258 265 268 280 305 314 312 307 302 297 294 298 306 309 307 303 301 300 302 305 309
6 12 20 26 30 33 37 41 46 50 57 66 74 79 83 86 87 91 98 103 104 107 110 113 115 118 122 125 128 130 130 132 135 137 139 139 140 141 142 142 144 147 149 151 152 153 155 156 157 158 161 160 160 164 170 175 186 199 206 215 232 243 246 253 263 268 273 292 305 306 305 303 297 292 296 309 315 311 307 304 302 300 303 308 311